Location: Bathurst
(33.4193°S, 149.5775°E)
Time: 10:25:47
(UTC+10:00)

Vanguard 1 Rocket - Pass Details

Date: 15 June 2021
Orbit: 650 x 4226 km, 34.3° (Epoch: 02 August)

Event Time Altitude Azimuth Distance (km) Brightness Sun altitude
Rises 12:29:36 0° 273° (W) 6,364 11.8 32.9°
Reaches altitude 10° 12:34:37 10° 272° (W) 4,763 11.3 32.7°
Maximum altitude 12:46:18 84° 182° (S) 1,292 8.6 32.3°
Drops below altitude 10° 12:52:21 10° 93° (E) 2,585 9.7 32.0°
Sets 12:54:20 0° 92° (E) 3,332 10.2 31.9°
